TimeCDT,TemperatureF,Dew PointF,Humidity,Sea Level PressureIn,VisibilityMPH,Wind Direction,Wind SpeedMPH,Gust SpeedMPH,PrecipitationIn,Events,Conditions,WindDirDegrees,DateUTC
12:56 AM,59.0,52.0,78,29.98,10.0,ESE,8.1,-,N/A,,Clear,110,2013-09-28 05:56:00
1:56 AM,57.9,51.1,78,29.98,10.0,East,6.9,-,N/A,,Clear,100,2013-09-28 06:56:00
2:56 AM,57.9,51.1,78,29.96,10.0,East,6.9,-,N/A,,Clear,100,2013-09-28 07:56:00
3:56 AM,60.1,51.1,72,29.95,10.0,ESE,5.8,-,N/A,,Overcast,120,2013-09-28 08:56:00
4:56 AM,62.1,52.0,70,29.96,10.0,ESE,5.8,-,N/A,,Overcast,120,2013-09-28 09:56:00
5:56 AM,62.1,52.0,70,29.96,10.0,SSE,5.8,-,N/A,,Overcast,150,2013-09-28 10:56:00
6:56 AM,62.1,52.0,70,29.96,10.0,SE,6.9,-,N/A,,Mostly Cloudy,130,2013-09-28 11:56:00
7:56 AM,64.0,53.1,67,29.95,10.0,SE,8.1,-,N/A,,Scattered Clouds,130,2013-09-28 12:56:00
8:56 AM,68.0,54.0,61,29.94,10.0,SE,9.2,18.4,N/A,,Mostly Cloudy,140,2013-09-28 13:56:00
9:56 AM,73.0,55.9,55,29.91,10.0,SSE,11.5,19.6,N/A,,Scattered Clouds,150,2013-09-28 14:56:00
10:56 AM,73.9,57.9,57,29.89,10.0,South,12.7,20.7,N/A,,Partly Cloudy,170,2013-09-28 15:56:00
11:56 AM,78.1,59.0,52,29.85,10.0,SSE,8.1,-,N/A,,Clear,160,2013-09-28 16:56:00
12:56 PM,81.0,60.1,49,29.82,9.0,South,28.8,39.1,N/A,,Mostly Cloudy,180,2013-09-28 17:56:00
1:56 PM,79.0,61.0,54,29.79,10.0,South,12.7,23.0,N/A,,Overcast,180,2013-09-28 18:56:00
2:56 PM,75.0,64.0,69,29.81,5.0,SSW,12.7,25.3,0.00,Rain,Light Rain,210,2013-09-28 19:56:00
3:56 PM,70.0,66.0,87,29.81,4.0,SSW,15.0,21.9,0.05,Rain,Light Rain,200,2013-09-28 20:56:00
4:56 PM,69.1,66.0,90,29.81,1.5,South,13.8,-,0.07,Rain,Rain,190,2013-09-28 21:56:00
5:04 PM,69.8,66.2,88,29.83,2.0,South,11.5,19.6,0.01,Rain,Light Rain,190,2013-09-28 22:04:00
5:13 PM,69.8,66.2,88,29.83,3.0,South,13.8,-,0.01,Rain,Light Rain,190,2013-09-28 22:13:00
5:20 PM,69.8,66.2,88,29.83,2.0,South,12.7,-,0.02,Rain,Light Rain,190,2013-09-28 22:20:00
5:31 PM,66.2,62.6,88,29.86,3.0,WNW,15.0,34.5,0.03,Rain,Light Rain,290,2013-09-28 22:31:00
5:41 PM,64.4,60.8,88,29.86,10.0,WNW,16.1,23.0,0.03,,Overcast,290,2013-09-28 22:41:00
5:56 PM,64.0,60.1,87,29.86,10.0,WNW,12.7,-,0.03,,Overcast,290,2013-09-28 22:56:00
6:12 PM,62.6,60.8,94,29.88,1.8,West,12.7,-,0.01,Rain,Rain,280,2013-09-28 23:12:00
6:18 PM,62.6,60.8,94,29.88,2.0,NW,11.5,-,0.02,Rain,Light Rain,310,2013-09-28 23:18:00
6:32 PM,60.8,57.2,88,29.89,4.0,WNW,11.5,23.0,0.02,Rain,Light Rain,290,2013-09-28 23:32:00
6:51 PM,60.8,57.2,88,29.90,4.0,West,13.8,-,0.03,Rain,Light Rain,280,2013-09-28 23:51:00
6:56 PM,60.1,55.9,86,29.88,4.0,WNW,12.7,21.9,0.04,Rain,Light Rain,290,2013-09-28 23:56:00
7:42 PM,57.2,53.6,88,29.93,2.0,West,10.4,-,0.08,Rain,Rain,280,2013-09-29 00:42:00
7:56 PM,57.0,54.0,89,29.92,10.0,West,6.9,-,0.08,Rain,Light Rain,280,2013-09-29 00:56:00
8:56 PM,55.9,54.0,93,29.93,10.0,WNW,4.6,-,N/A,,Partly Cloudy,290,2013-09-29 01:56:00
9:56 PM,54.0,53.1,97,29.95,10.0,West,3.5,-,N/A,,Clear,260,2013-09-29 02:56:00
10:56 PM,54.0,52.0,93,29.96,10.0,Calm,Calm,-,N/A,,Mostly Cloudy,0,2013-09-29 03:56:00
11:04 PM,55.4,53.6,94,29.98,10.0,West,3.5,-,N/A,,Mostly Cloudy,280,2013-09-29 04:04:00
11:16 PM,55.4,53.6,94,29.99,10.0,Calm,Calm,-,N/A,,Overcast,0,2013-09-29 04:16:00
11:45 PM,53.6,53.6,100,30.00,1.8,West,3.5,-,N/A,,Overcast,280,2013-09-29 04:45:00
11:56 PM,54.0,54.0,100,29.98,0.8,Calm,Calm,-,N/A,,Overcast,0,2013-09-29 04:56:00